Content
SEND FEEDBACK

Daily
Averages
Monthly
Summary
Switzerland

GENEVA, SWITZERLAND


Home > Europe > Switzerland
Elevation: 415 meters     Latitude: 46 15N     Longitude: 006 08E

WEATHER
 
SELECT A DAY
Number of Records: 305,383;   Date Range: 7/1/96 - 7/20/14
 
SHARE

PRINT THIS DATA

[ ← Previous Day ]
WEATHER ALMANAC - 3 JULY, 2013
[ Next Day → ]
[ °F ]   °C
Weather ElementAverageHighLow
Temperature18 °C21 °C (12:20 am)15 °C (5:50 am)
Dewpoint14.6 °C17 °C (9:50 pm)11 °C (12:20 am)
Humidity79.4 %100 % (9:50 pm)47 % (1:00 am)
Barometer1016.3 hPa1019 hPa (10:50 pm)1013.5 hPa (4:00 am)
Wind Speed12.9 km/h25.9 km/h (4:00 pm)
Weather ElementAverage
Visibility10.5 km
Wind DirectionSSW (209.1 °)

Weather ElementTotal
Precipitation---
Heating Degree Days0.3 (Base 18.3)
Growing Degree Days8 (Base 10)
Averaged from 65 records on 3 July, 2013
WEATHER CONDITIONS BREAKOUT
WIND DIRECTION BREAKOUT
WEATHER BY HOUR - 3 JULY, 2013
[ °F ]   °C
Local TimeTemperatureDewpointHumidityBarometerVisibilityWind DirectionWind SpeedGust SpeedPrecipitationEventsConditions
12:20 AM21 °C11 °C53 %1016.3 hPa10 kmSSW (200°)13 km/hMostly Cloudy
12:50 AM20 °C12 °C60 %1016.3 hPa10 kmSW (230°)7.4 km/hRainLight Rain Showers
1:00 AM20 °C11.1 °C47 %1014.9 hPaSW (220°)11.1 km/h
1:20 AM19 °C12 °C64 %1016.3 hPa10 kmSSW (200°)5.6 km/hRainLight Rain Showers
1:50 AM18 °C13 °C73 %1015.2 hPa10 kmCalmRainLight Rain Showers
2:00 AM18.3 °C12.2 °C60 %1014.6 hPa11.3 kmWNW (290°)9.3 km/hRainLight Rain Showers
2:20 AM18 °C13 °C73 %1016.3 hPa10 kmWNW (290°)11.1 km/hRainLight Rain Showers
2:50 AM17 °C14 °C82 %1015.2 hPa10 kmWest (260°)5.6 km/hRainLight Rain Showers
3:00 AM17.2 °C13.3 °C71 %1014.6 hPaSSE (160°)7.4 km/h
3:50 AM17 °C14 °C82 %1014.2 hPa10 kmSE (130°)1.9 km/hMostly Cloudy
4:00 AM16.7 °C14.4 °C81 %1013.5 hPaNNW (330°)5.6 km/h
4:20 AM17 °C15 °C88 %1014.2 hPa10 kmWest (280°)5.6 km/hRainLight Rain Showers
4:50 AM17 °C15 °C88 %1015.2 hPa10 kmWSW (240°)11.1 km/hRainLight Rain Showers
5:20 AM16 °C15 °C94 %1016.3 hPa9 kmWSW (240°)16.7 km/hRainRain Showers
5:50 AM15 °C14 °C94 %1015.2 hPa10 kmWSW (250°)7.4 km/hRainLight Rain
6:00 AM15.6 °C13.9 °C87 %1015.2 hPaWest (260°)9.3 km/h
6:20 AM15 °C14 °C94 %1015.2 hPa10 kmVariable5.6 km/hRainLight Rain
6:50 AM15 °C14 °C94 %1016.3 hPa10 kmSW (230°)14.8 km/hRainLight Rain
7:00 AM15.6 °C13.3 °C83 %1015.6 hPaWSW (240°)13 km/h
7:20 AM16 °C14 °C88 %1016.3 hPa10 kmWSW (250°)9.3 km/hRainLight Rain
7:50 AM16 °C14 °C88 %1016.3 hPa9 kmSW (220°)18.5 km/hRainLight Rain
8:00 AM15.6 °C13.9 °C85 %1015.6 hPa17.7 kmWest (260°)9.3 km/hRainLight Rain
8:20 AM16 °C14 °C88 %1016.3 hPa10 kmSW (230°)9.3 km/hMostly Cloudy
8:50 AM16 °C15 °C94 %1016.3 hPa10 kmWSW (240°)11.1 km/hMostly Cloudy
9:00 AM16.1 °C13.9 °C83 %1015.6 hPaWSW (240°)11.1 km/h
9:20 AM16 °C14 °C88 %1016.3 hPa10 kmWSW (240°)11.1 km/hMostly Cloudy
9:50 AM17 °C14 °C82 %1016.3 hPa10 kmWSW (240°)16.7 km/hMostly Cloudy
10:00 AM17.2 °C13.3 °C72 %1015.6 hPaWSW (240°)14.8 km/h
10:20 AM17 °C14 °C82 %1016.3 hPa10 kmWSW (240°)16.7 km/hMostly Cloudy
10:50 AM18 °C14 °C77 %1016.3 hPa10 kmSW (230°)18.5 km/hMostly Cloudy
11:20 AM18 °C14 °C77 %1016.3 hPa10 kmSW (230°)20.4 km/hMostly Cloudy
11:50 AM18 °C14 °C77 %1016.3 hPa10 kmSW (230°)18.5 km/hRainLight Rain
12:00 PM18.3 °C13.9 °C69 %1015.2 hPaSW (230°)16.7 km/h
12:20 PM18 °C15 °C83 %1016.3 hPa9 kmWSW (240°)16.7 km/hRainLight Rain
12:50 PM18 °C15 °C83 %1016.3 hPa10 kmWSW (240°)14.8 km/hMostly Cloudy
1:00 PM18.9 °C15 °C71 %1015.2 hPaSW (230°)16.7 km/h
1:20 PM19 °C15 °C78 %1016.3 hPa10 kmWSW (240°)14.8 km/hMostly Cloudy
1:50 PM19 °C15 °C78 %1016.3 hPa10 kmWSW (240°)20.4 km/hMostly Cloudy
2:00 PM18.9 °C14.4 °C69 %1015.6 hPa17.7 kmSW (230°)18.5 km/hRainLight Rain Showers
2:20 PM19 °C15 °C78 %1016.3 hPa10 kmSW (230°)16.7 km/hMostly Cloudy
2:50 PM20 °C15 °C73 %1016.3 hPa10 kmSW (230°)16.7 km/hMostly Cloudy
3:00 PM19.4 °C15 °C67 %1015.2 hPaSW (220°)24.1 km/h
3:20 PM20 °C15 °C73 %1016.3 hPa10 kmSW (230°)14.8 km/hMostly Cloudy
3:50 PM20 °C16 °C78 %1016.3 hPa10 kmSSW (210°)24.1 km/hMostly Cloudy
4:00 PM19.4 °C15 °C67 %1015.6 hPaSW (220°)25.9 km/h
4:20 PM20 °C15 °C73 %1017.3 hPa10 kmSSW (210°)24.1 km/hRainLight Rain Showers
4:50 PM21 °C15 °C68 %1017.3 hPa10 kmSSW (210°)22.2 km/hMostly Cloudy
5:20 PM20 °C16 °C78 %1017.3 hPa10 kmSW (220°)24.1 km/hRainLight Rain Showers
5:50 PM19 °C16 °C83 %1017.3 hPa10 kmSSW (200°)24.1 km/hMostly Cloudy
6:00 PM19.4 °C15 °C67 %1015.6 hPaSSW (210°)20.4 km/h
6:20 PM20 °C15 °C73 %1017.3 hPa10 kmSSW (200°)22.2 km/hMostly Cloudy
6:50 PM19 °C16 °C83 %1017.3 hPa10 kmSW (220°)13 km/hMostly Cloudy
7:00 PM19.4 °C15 °C70 %1015.6 hPaSSW (210°)16.7 km/h
7:20 PM20 °C16 °C78 %1017.3 hPa10 kmWSW (240°)9.3 km/hMostly Cloudy
7:50 PM20 °C16 °C78 %1017.3 hPa10 kmSW (220°)11.1 km/hMostly Cloudy
8:00 PM19.4 °C14.4 °C67 %1015.9 hPa30.6 kmSouth (190°)13 km/hPartly Cloudy
8:20 PM20 °C15 °C73 %1017.3 hPa10 kmWSW (240°)9.3 km/hMostly Cloudy
8:50 PM19 °C16 °C83 %1017.9 hPa4.5 kmWest (270°)7.4 km/hRainLight Rain Showers
9:00 PM17.8 °C16.1 °C87 %1016.9 hPaSW (230°)9.3 km/h
9:20 PM18 °C16 °C88 %1017.9 hPa10 kmSW (220°)5.6 km/hMostly Cloudy
9:50 PM17 °C17 °C100 %1017.9 hPa10 kmSouth (170°)5.6 km/hMostly Cloudy
10:20 PM17 °C17 °C100 %1017.9 hPa10 kmVariable3.7 km/hMostly Cloudy
10:50 PM17 °C16 °C94 %1019 hPa10 kmVariable1.9 km/hMostly Cloudy
11:20 PM17 °C17 °C100 %1019 hPa8 kmVariable3.7 km/hRainLight Rain Showers
11:50 PM17 °C17 °C100 %1019 hPa10 kmVariable3.7 km/hMostly Cloudy
Hourly data recorded from LSGG, located 0 kilometers away from Geneva, Switzerland







STORIES FROM OUR PARTNERS